Location: ???????
(55.5813°N, 38.6682°E)
Time: 07:22:51
(UTC+00:00)

Daily predictions for brighter satellites

Satellite Brightness Start Highest point End
(mag) Time Altitude Azimuth Time Altitude Azimuth Time Altitude Azimuth
USA 267 3.7 17:52:44 10° ENE 17:58:48 39° SE 18:04:51 10° SSW
Cosmos 2360 4.3 17:53:07 10° NW 17:58:55 86° WSW 18:04:39 10° SSE
Cosmos 44 4.4 17:55:40 10° NW 18:00:04 37° NNE 18:04:41 10° E
IRIDIUM 114 4.4 17:57:30 10° S 18:02:44 89° E 18:08:00 10° N
Cosmos 614 Rocket 4.1 17:59:30 10° S 18:04:31 54° ESE 18:09:37 10° NE
Cosmos 1441 Rocket 3.1 18:01:45 10° S 18:05:30 67° ESE 18:09:16 10° NNE
Cosmos 1900 4.4 18:03:39 10° SSW 18:08:34 65° SE 18:13:35 10° NE
IGS 5A 3.5 18:05:39 10° SSE 18:09:47 77° ENE 18:13:57 10° NNW
Cosmos 1821 Rocket 4.0 18:03:52 10° S 18:10:00 76° E 18:16:15 10° NNE
GP-B 3.5 18:06:19 10° N 18:10:38 48° E 18:14:56 10° SSE
COSMOS 2406 3.2 18:08:59 10° SSW 18:14:41 66° ESE 18:20:22 10° NE
SL-16 R/B 3.0 18:09:24 10° NNW 18:14:50 43° NE 18:20:13 10° ESE
CZ-2C R/B 3.9 18:10:58 10° NNE 18:15:40 79° WNW 18:20:14 10° SSW
Cosmos 921 Rocket 3.3 18:13:04 10° NNW 18:17:16 53° ENE 18:21:16 11° SE
Cosmos 1862 Rocket 3.7 18:14:37 10° N 18:19:07 68° ENE 18:23:33 10° SSE
Cosmos 2369 4.2 18:14:05 10° NW 18:19:43 59° WSW 18:25:20 10° SSE
ERS-1 Rocket 3.2 18:16:25 10° SSE 18:21:21 61° ENE 18:26:19 10° N
Lacrosse 5 1.9 18:16:40 10° WNW 18:21:47 87° SSW 18:26:53 10° ESE
Cosmos 2219 Rocket 4.2 18:21:04 10° NNW 18:25:24 22° NNE 18:29:43 10° ENE
Cosmos 2123 Rocket 4.1 18:19:46 10° NNW 18:26:01 90° NW 18:32:17 10° S
Cosmos 2278 4.0 18:23:23 10° NW 18:29:06 70° WSW 18:34:46 10° SSE
Sich 1 3.2 18:25:24 10° SSW 18:29:51 82° WNW 18:34:20 10° N
Cosmos 2082 Rocket 2.6 18:24:47 10° S 18:30:06 42° ESE 18:35:24 10° NE
Cosmos 1862 4.2 18:26:18 10° SSW 18:30:17 53° WNW 18:34:18 10° N
NOSS 2 (A) 4.2 18:29:12 10° NW 18:32:02 73° SW 18:33:53 16° SE
Cosmos 1535 Rocket 4.5 18:27:00 10° S 18:33:05 68° E 18:39:10 10° NNE
Spot 2 Rocket 3.8 18:32:10 10° S 18:37:15 67° WSW 18:42:22 10° NNW
Cosmos 2322 Rocket 2.8 18:31:51 10° NNW 18:37:22 48° NE 18:42:37 11° ESE
USA 234 3.7 18:31:25 11° SE 18:37:31 50° SW 18:43:52 10° WNW
CZ-2C R/B 4.0 18:35:08 10° N 18:39:57 40° WNW 18:44:46 10° SW
Cosmos 1605 Rocket 4.1 18:37:28 10° S 18:43:26 57° E 18:49:24 10° NNE
Cosmos 1190 Rocket 4.0 18:39:11 10° SSW 18:44:25 67° ESE 18:49:43 10° NNE
Meteor 1-4 Rocket 3.3 18:41:09 10° NNW 18:44:32 47° W 18:47:52 10° S
Terra 2.0 18:42:15 13° SSE 18:46:22 63° ENE 18:51:07 10° N
CARTOSAT-1 3.6 18:42:57 12° SSE 18:47:01 89° WSW 18:51:23 10° NNW
Cosmos 407 Rocket 3.5 18:42:06 10° SSW 18:47:26 82° ESE 18:52:44 10° NNE
Meteor 1-20 Rocket 4.5 18:42:09 10° S 18:47:48 56° E 18:53:31 10° NNE
Cosmos 1933 Rocket 4.0 18:47:09 13° SSE 18:50:49 43° E 18:55:03 10° NNE
Cosmos 1238 Rocket 2.5 18:49:11 16° SSE 18:51:15 42° E 18:54:05 10° NNE
Cosmos 1666 Rocket 3.7 18:46:57 10° SSW 18:51:16 74° WNW 18:55:38 10° N
Cosmos 1184 Rocket 2.8 18:48:07 10° S 18:51:22 63° E 18:54:40 10° NNE
Cosmos 2360 Rocket 3.2 18:46:12 10° NNW 18:51:33 40° NE 18:56:50 10° ESE
Okean 1 3.4 18:48:35 10° N 18:52:38 70° ENE 18:55:47 16° SSE
USA 238 DEB 4.2 18:47:13 10° S 18:53:07 35° ESE 18:59:15 10° ENE
USA 238 4.2 18:47:21 10° S 18:53:14 35° ESE 18:59:21 10° ENE
Meteor 1-19 Rocket 4.2 18:49:54 10° NNW 18:55:21 72° ENE 18:59:51 15° SSE
Cosmos 1437 Rocket 2.9 18:53:40 10° N 18:57:28 56° ENE 19:00:03 19° SSE
Cosmos 1602 4.2 18:56:28 16° SSE 18:59:19 45° E 19:03:06 10° NNE
Cosmos 1980 Rocket 2.9 18:54:50 10° NW 19:00:18 49° WSW 19:05:19 12° S
SPOT 5 2.7 18:56:40 14° SSE 19:00:25 79° WSW 19:04:50 10° NNW
Geosat 4.3 19:00:28 15° SE 19:04:33 62° NE 19:09:32 10° NNW
Iridium 4 Rocket 4.2 19:02:12 17° SE 19:04:39 28° E 19:08:17 10° NNE
SPOT 1/Viking Rocket 4.3 18:59:44 10° S 19:04:48 50° W 19:09:55 10° NNW
ERBS 2.3 19:03:09 10° WSW 19:06:29 80° NNW 19:09:49 10° ENE
Cosmos 2242 Rocket 3.6 19:02:00 10° NNW 19:06:29 86° W 19:09:59 16° S
Cosmos 1703 Rocket 3.5 19:02:24 10° N 19:06:48 74° ENE 19:09:56 18° SSE
Cosmos 1763 Rocket 3.5 19:01:44 10° NNW 19:07:06 86° ENE 19:11:07 18° SSE
Cosmos 2333 Rocket 3.7 19:06:10 10° NNW 19:11:18 31° NNE 19:16:25 10° E
Cosmos 1140 Rocket 3.6 19:08:02 10° SSW 19:13:18 83° WNW 19:18:37 10° NNE
SL-4 R/B 2.6 19:11:17 10° SW 19:14:31 27° SSE 19:15:57 21° ESE
Cosmos 2237 Rocket 4.4 19:11:02 10° NNW 19:15:15 21° NNE 19:19:26 10° ENE
Cosmos 1697 Rocket 4.5 19:11:12 10° NW 19:15:36 24° WSW 19:19:59 10° SSW
ALOS 2 4.4 19:12:56 11° ESE 19:16:01 22° ENE 19:19:22 10° N
Cosmos 1500 4.2 19:15:26 21° SE 19:16:56 28° E 19:20:11 10° NNE
Cosmos 405 Rocket 2.6 19:14:14 17° S 19:16:56 66° E 19:20:40 10° NNE
USA 32 4.3 19:13:24 10° SSW 19:18:37 72° W 19:23:53 10° N
Cosmos 1833 Rocket 3.0 19:15:17 10° SW 19:20:53 70° NW 19:26:33 10° NNE
CENTAUR R/B 3.3 19:17:41 15° S 19:21:57 33° ESE 19:28:08 10° ENE
Meteor 1-18 Rocket 4.4 19:17:13 10° NNW 19:22:50 70° W 19:27:21 16° S
Cosmos 1153 Rocket 4.5 19:18:42 13° S 19:24:11 72° E 19:30:22 10° NNE
Cosmos 1633 Rocket 4.1 19:20:29 10° SW 19:24:45 46° WNW 19:29:02 10° N
Cosmos 1867 3.6 19:22:54 10° SSW 19:28:16 62° SE 19:33:40 10° NE
Okean 1-7 3.1 19:24:25 10° NNW 19:28:48 79° W 19:31:38 21° S
Cosmos 1666 4.3 19:27:49 18° ESE 19:28:48 19° E 19:31:33 10° NE
Cosmos 2221 Rocket 4.2 19:24:44 10° N 19:29:02 44° ENE 19:31:33 22° SE
Meteor 2-4 Rocket 3.7 19:27:11 10° NNW 19:32:58 86° ENE 19:36:49 21° SSE
Cosmos 1802 Rocket 4.5 19:29:04 20° SSE 19:33:15 46° E 19:39:16 10° NNE
Resurs 01 Rocket 4.4 19:32:45 10° WSW 19:34:26 12° W 19:36:07 10° WNW
Okean 3 3.7 19:30:56 10° N 19:35:10 57° ENE 19:37:28 25° SE
Cosmos 1850 Rocket 4.3 19:34:03 19° S 19:37:41 50° ESE 19:42:47 10° NE
Cosmos 1515 4.2 19:37:23 10° NNW 19:41:09 54° W 19:43:28 21° SSW
Cosmos 44 3.3 19:36:52 10° NW 19:41:42 80° SW 19:44:45 24° SE
Cosmos 676 Rocket 4.2 19:36:36 10° SSW 19:41:57 77° WNW 19:47:20 10° NNE
Meteor 1-25 Rocket 4.5 19:36:29 10° SSW 19:42:02 69° WNW 19:47:41 10° NNE
USA 267 3.2 19:35:50 10° ENE 19:42:25 79° SSE 19:48:59 10° WSW
FALCON 9 DEB 4.1 19:39:29 10° SW 19:41:53 29° S 19:41:53 29° S
SL-27 R/B 3.1 19:46:05 32° SE 19:46:33 33° ESE 19:49:35 10° NE
NOSS 3-2 (A) 3.5 19:41:40 10° SSW 19:47:26 62° SE 19:54:07 10° NE
Spot 4 4.0 19:48:18 25° SE 19:51:02 67° ENE 19:55:51 10° NNW
NOSS 3-2 (C) 3.7 19:48:31 14° SSW 19:53:23 48° SE 19:59:47 10° NE
OPS 6432 4.2 19:52:42 10° SW 19:56:21 87° NW 19:59:22 10° NE
Cosmos 841 Rocket 3.6 19:53:48 10° NNW 19:59:00 72° WSW 20:01:56 26° SSE
SL-16 R/B 2.6 19:53:36 10° NW 19:59:09 54° WSW 20:02:26 24° S
Cosmos 540 Rocket 3.5 19:55:33 10° NNW 20:00:43 72° WSW 20:03:34 27° SSE
Cosmos 2322 4.1 19:56:06 10° NNW 20:01:45 58° NE 20:05:42 20° ESE
Cosmos 1378 4.4 19:58:25 10° N 20:01:48 30° ENE 20:03:16 23° ESE
Lacrosse 5 2.6 19:59:47 10° WNW 20:04:27 37° SW 20:06:22 27° S
Tsikada Rocket 4.1 19:59:50 10° N 20:06:15 70° ENE 20:10:05 25° SSE
Cosmos 1570 Rocket 4.3 20:04:40 10° NNW 20:09:54 59° WSW 20:12:46 26° S
Cosmos 2219 Rocket 2.8 20:05:07 10° NNW 20:10:40 51° NE 20:14:57 17° ESE
Cosmos 2208 Rocket 4.1 20:06:41 10° NNW 20:11:57 66° WSW 20:14:40 28° S
Cosmos 1741 Rocket 3.9 20:08:05 18° SSW 20:12:01 82° ESE 20:17:21 10° NNE
Cosmos 1814 Rocket 4.1 20:07:28 10° NNW 20:12:38 68° WSW 20:15:20 28° S
Cosmos 1378 Rocket 4.2 20:08:23 10° N 20:12:42 45° ENE 20:14:43 27° SE
Cosmos 2082 Rocket 3.0 20:08:35 10° WSW 20:14:09 52° NW 20:19:42 10° NNE
Cosmos 2237 4.2 20:09:46 10° NW 20:15:30 73° WSW 20:18:35 28° SSE
Cosmos 2333 4.4 20:10:22 10° NNW 20:16:12 70° NE 20:19:54 23° SE
Cosmos 2322 Rocket 2.8 20:16:04 10° NW 20:21:29 46° WSW 20:24:25 25° S
Cosmos 2084 Rocket 3.9 20:22:32 35° SSE 20:23:05 37° SE 20:27:05 10° ENE
Terra 3.6 20:21:08 12° SW 20:24:32 24° W 20:28:24 10° NW
COSMOS 2487 4.0 20:25:18 21° E 20:25:18 21° E 20:27:46 10° NE
SL-16 R/B 4.4 20:21:02 10° NNW 20:25:31 23° NNE 20:29:57 10° ENE
Cosmos 2100 Rocket 4.1 20:20:53 18° SSW 20:25:35 72° WNW 20:31:46 10° N
EO 1 Del DPAF 3.4 20:25:19 10° NNE 20:29:02 54° ESE 20:29:58 41° SSE
Meteor 1-11 Rocket 3.7 20:26:41 28° S 20:29:46 74° E 20:35:33 10° NNE
Cosmos 2360 Rocket 2.4 20:30:16 10° NW 20:35:52 60° WSW 20:38:35 30° S
ATLAS 3B R/B 3.1 20:34:00 28° SSE 20:36:44 40° ESE 20:42:50 10° NE
COSMOS 2428 3.0 20:31:06 10° NNW 20:36:50 65° NE 20:40:38 22° SE
Cosmos 1242 Rocket 2.5 20:33:35 10° NNW 20:37:12 79° WSW 20:38:07 48° S
Helios 1A 3.8 20:36:34 27° ESE 20:38:27 44° ENE 20:42:29 10° N
Cosmos 1869 Rocket 4.3 20:35:53 19° SW 20:38:46 48° WNW 20:43:07 10° N
Cosmos 2173 Rocket 4.3 20:36:35 17° SSW 20:41:20 61° WNW 20:47:25 10° N
ERBS 2.4 20:39:37 10° WNW 20:42:55 71° N 20:45:20 17° E
USA 238 DEB 3.7 20:36:48 10° SW 20:43:33 83° NW 20:50:38 10° NE
USA 238 3.7 20:36:54 10° SW 20:43:39 83° NW 20:50:44 10° NE
Iridium 4 Rocket 4.1 20:41:58 20° SW 20:44:33 39° WNW 20:48:31 10° N
Cosmos 1725 Rocket 4.0 20:42:39 26° S 20:46:28 89° W 20:52:52 10° NNE
Okean 2 4.1 20:43:27 10° N 20:47:25 44° ENE 20:48:58 30° ESE
SL-08 R/B 4.5 20:47:38 26° SSW 20:51:19 82° WNW 20:57:28 10° N
ALOS 2 2.7 20:50:20 38° S 20:51:58 70° WSW 20:56:22 10° NNW
MOS 1-B Rocket 4.0 20:46:33 10° NNE 20:52:22 70° WNW 20:56:13 21° SSW
SL-4 R/B 3.3 20:50:07 10° WSW 20:51:35 21° WSW 20:51:35 21° WSW
BREEZE-M DEB (TANK) 4.2 20:49:41 10° W 20:54:07 48° S 21:10:24 10° ESE
Cosmos 1674 Rocket 3.6 20:50:18 10° NNW 20:54:37 66° W 20:56:08 38° SSW
Cosmos 2333 Rocket 2.2 20:50:28 10° NW 20:56:17 87° WSW 20:59:20 29° SSE
NOSS 0 Rocket 4.3 20:52:11 10° NW 20:58:26 64° NE 21:03:17 17° SE
Cosmos 2016 Rocket 4.3 20:55:14 21° SSW 20:59:32 65° WNW 21:05:55 10° N
Cosmos 1536 3.0 20:58:57 36° SW 21:00:26 66° WNW 21:04:25 10° N
Cosmos 2061 Rocket 4.3 20:56:26 22° SSW 21:00:35 64° WNW 21:06:47 10° N
Cosmos 2237 Rocket 3.0 20:55:14 10° NNW 21:00:44 47° NE 21:05:46 12° ESE
Cosmos 1666 3.3 21:02:40 31° SW 21:04:05 48° WNW 21:07:45 10° N
Cosmos 1743 2.9 21:03:12 46° SSE 21:04:06 60° E 21:07:58 10° NNE
Cosmos 1271 Rocket 2.6 21:00:59 10° NNW 21:04:46 78° WSW 21:05:39 50° S
Cosmos 2344 4.3 20:59:28 10° NW 21:08:07 78° NNE 21:20:01 10° ESE
Cosmos 1356 4.1 21:07:57 34° WSW 21:08:59 47° WNW 21:12:20 10° N
Lacrosse 4 Rocket 2.1 21:09:06 35° SE 21:09:33 36° ESE 21:13:25 10° NE
Meteor 2-11 Rocket 4.5 21:07:18 31° S 21:10:19 69° E 21:16:24 10° NNE
CENTAUR R/B 2.7 21:05:35 10° SW 21:11:56 85° NW 21:19:33 10° NE
Thor Agena Rocket 3.8 21:08:24 10° NNE 21:13:24 62° WNW 21:16:25 24° SW
Cosmos 1733 Rocket 3.4 21:13:55 31° SW 21:15:50 58° WNW 21:20:12 10° N
Cosmos 44 Rocket 3.2 21:11:23 10° NW 21:16:20 81° SW 21:18:51 30° SE
Cosmos 968 Rocket 3.7 21:19:01 35° SSE 21:20:49 53° ESE 21:25:49 10° NE
SL-27 R/B 4.2 21:19:37 15° WSW 21:21:41 26° NW 21:24:34 10° N
Resurs 1-4 Rocket 4.4 21:22:01 10° ENE 21:23:52 12° E 21:25:43 10° ESE
ATLAS 5 CENTAUR R/B 3.9 21:21:01 10° W 21:23:24 21° SW 21:23:24 21° SW
SL-24 DEB 4.2 21:20:08 10° N 21:24:58 89° E 21:26:50 38° S
USA 267 3.4 21:18:58 10° E 21:25:32 80° N 21:32:05 10° W
Cosmos 1975 3.1 21:26:37 41° SE 21:27:37 54° E 21:31:34 10° NNE
Cosmos 2233 Rocket 4.2 21:29:55 26° SSW 21:33:39 67° WNW 21:39:59 10° N
Cosmos 1464 Rocket 4.2 21:30:54 29° SSE 21:34:03 61° E 21:40:10 10° NNE
Cosmos 1782 Rocket 3.7 21:33:28 40° SSE 21:34:48 59° E 21:39:05 10° NNE
Cosmos 1378 4.3 21:33:48 10° NNW 21:37:08 30° W 21:37:53 28° WSW
NOSS 3-2 (A) 4.2 21:32:26 10° WSW 21:38:30 57° NNW 21:45:34 10° NE
Cosmos 1707 3.3 21:35:50 10° N 21:39:41 51° ENE 21:41:05 33° SE
Meteor 1-21 4.2 21:34:20 10° NNW 21:40:12 84° WSW 21:43:02 32° S
Cosmos 1842 3.3 21:37:32 10° NNW 21:41:29 66° W 21:42:24 47° SSW
CZ-4 R/B 4.5 21:37:00 10° NNE 21:41:49 48° E 21:43:49 31° SSE
Cosmos 1607 4.5 21:35:28 10° NW 21:41:51 62° NNE 21:48:16 10° ESE
SL-16 R/B 4.4 21:40:19 10° WNW 21:42:00 11° W 21:43:41 10° WSW
Cosmos 1908 Rocket 3.6 21:41:24 39° SSW 21:42:58 73° WNW 21:47:22 10° N
Cosmos 2227 Rocket 4.1 21:40:53 13° SE 21:43:18 17° E 21:46:46 10° ENE
NOSS 3-2 (C) 3.9 21:38:06 10° WSW 21:44:09 65° NNW 21:51:15 10° NE
Helios 1B rocket 3.4 21:40:33 10° NNE 21:44:20 35° E 21:45:30 29° SE
Cosmos 2322 4.5 21:40:37 10° NW 21:45:44 36° WSW 21:47:36 29° SSW
Nadezhda 4 Rocket 4.0 21:43:36 10° N 21:49:58 82° ENE 21:53:30 28° SSE
Cosmos 1833 4.3 21:46:47 25° SW 21:50:11 78° NW 21:55:55 10° NNE
Cosmos 1674 4.5 21:48:32 10° N 21:51:42 25° ENE 21:53:55 15° ESE
Cosmos 2219 Rocket 2.7 21:49:16 10° NW 21:54:37 43° WSW 21:56:38 31° SSW
COSMOS 2487 3.3 21:58:46 31° WSW 21:59:54 42° WNW 22:03:14 10° NNE
Cosmos 2084 Rocket 4.0 21:59:01 15° WSW 22:02:28 59° NNW 22:06:48 10° NE
Cosmos 2034 Rocket 4.1 21:59:08 29° S 22:02:29 70° E 22:08:47 10° NNE
Cosmos 1975 Rocket 3.5 21:59:29 10° NNW 22:03:52 51° W 22:05:17 36° SW
Cosmos 1092 Rocket 4.2 21:57:49 10° N 22:04:06 70° ENE 22:08:08 23° SSE
Cosmos 1072 Rocket 4.4 22:02:07 30° SSW 22:05:19 83° WNW 22:11:29 10° N
SL-16 R/B 3.2 22:01:10 12° SE 22:06:48 54° ENE 22:12:53 10° NNW
Meteor 1-29 4.0 22:03:38 10° NNE 22:06:50 33° E 22:07:35 30° SE
Cosmos 1503 Rocket 4.0 22:05:35 33° SSW 22:08:05 81° ESE 22:13:30 10° NNE
Okean 2 Rocket 3.5 22:08:00 33° SSE 22:09:44 56° E 22:14:10 10° NNE
CZ-2D R/B 3.8 22:05:33 10° NE 22:10:05 26° E 22:13:36 14° SE
SL-16 R/B 2.8 22:05:13 10° NNW 22:10:52 56° NE 22:16:28 10° SE
Cosmos 1437 2.4 22:09:14 10° NNW 22:12:14 83° ENE 22:12:28 73° SE
Landsat 4 3.6 22:09:19 10° NNE 22:13:08 83° WNW 22:14:13 45° SSW
Helios 1A 4.2 22:13:11 25° WSW 22:14:10 28° W 22:17:51 10° NW
Cosmos 1486 Rocket 4.3 22:11:52 25° SW 22:14:52 61° WNW 22:20:03 10° NNE
Cosmos 1300 Rocket 3.8 22:15:24 35° SSE 22:17:01 60° E 22:21:18 10° NNE
Cosmos 2360 Rocket 4.2 22:16:15 10° WNW 22:18:44 13° W 22:20:19 12° WSW
ERBS 3.1 22:15:57 10° WNW 22:18:11 35° W 22:18:11 35° W
Sich 1 Rocket 3.5 22:18:02 38° SSW 22:19:41 84° WNW 22:24:07 10° N
COSMOS 2428 3.6 22:15:47 10° NW 22:20:49 32° WSW 22:22:37 27° SW
Cosmos 1544 4.1 22:20:20 28° WSW 22:21:28 36° WNW 22:24:54 10° N
PSLV R/B 3.8 22:19:29 10° NNE 22:24:08 76° WNW 22:26:13 33° SSW
Okean 1 Rocket 4.5 22:22:26 19° SE 22:24:43 30° E 22:28:32 10° NNE
ATLAS 3B R/B 2.8 22:21:13 14° WSW 22:27:05 74° NW 22:33:50 10° NE
Meteor 2-5 Rocket 4.3 22:24:40 10° N 22:30:15 54° ENE 22:35:10 13° SE
Meteor 2-13 Rocket 4.4 22:28:50 10° NNW 22:34:58 85° W 22:38:49 24° S
Cosmos 1980 3.9 22:29:51 10° NW 22:35:21 51° WSW 22:38:04 28° S
DNEPR-1 R/B 4.1 22:30:30 10° NW 22:36:41 67° SW 22:40:28 18° SSE
Cosmos 2297 Rocket 2.9 22:34:19 24° SSE 22:37:10 42° ESE 22:42:28 10° NE
DELTA 2 DEB (DPAF) 4.1 22:35:06 26° SSE 22:37:34 82° ENE 22:42:03 10° NNW
USA 102 3.9 22:38:30 41° NW 22:38:30 41° NW 22:44:10 10° NNW
KORONAS-FOTON 4.0 22:34:35 10° N 22:38:23 67° ENE 22:40:10 29° SSE
Cosmos 2333 Rocket 3.7 22:35:38 10° NW 22:39:49 21° WSW 22:41:19 19° WSW
Cosmos 2219 3.7 22:37:34 26° S 22:40:25 49° ESE 22:45:50 10° NE
Cosmos 2151 Rocket 3.6 22:39:14 33° S 22:41:10 78° E 22:45:35 10° NNE
Cosmos 1538 Rocket 4.0 22:36:10 10° NNW 22:41:16 59° WSW 22:43:52 28° S
Cosmos 1626 3.5 22:38:53 10° N 22:42:20 35° ENE 22:45:13 13° SE
SJ 16-02 3.2 22:41:00 14° SE 22:43:29 21° E 22:46:50 10° NE
Cosmos 2237 Rocket 2.5 22:39:27 10° NW 22:44:52 47° WSW 22:47:32 27° S
Cosmos 1025 Rocket 3.4 22:42:43 10° NNW 22:46:50 46° W 22:48:18 32° SW
Timation 2 Rocket 3.9 22:43:45 27° SSW 22:47:15 72° ESE 22:53:15 10° NE
Lacrosse 4 Rocket 2.3 22:45:23 19° WSW 22:48:12 46° NW 22:52:14 10° NE
UNK 3.8 22:46:05 22° SSE 22:49:07 83° ENE 22:53:50 10° NNW
FALCON 9 DEB 3.5 22:56:27 40° S 22:56:27 40° S 22:59:26 10° SE
Cosmos 1766 4.2 22:57:04 22° SSE 22:59:10 41° E 23:02:51 10° NNE
Cosmos 1892 Rocket 4.3 22:57:12 10° N 23:01:36 52° ENE 23:05:39 12° SSE
Spot 1 4.1 23:00:24 31° SSW 23:02:06 53° WSW 23:06:07 10° NNW
CENTAUR R/B 3.8 22:56:52 10° W 23:03:27 49° N 23:11:11 10° ENE
Cosmos 2026 Rocket 4.0 22:58:43 10° NNW 23:04:44 65° W 23:08:43 22° S
Resurs 1-4 Rocket 2.4 22:59:36 10° NNE 23:04:52 59° ESE 23:08:21 21° S
Cosmos 1536 Rocket 4.2 23:02:18 10° NNW 23:06:21 39° W 23:07:59 27° SW
Cosmos 2112 Rocket 4.1 23:01:19 10° NNW 23:06:36 80° ENE 23:11:49 10° SSE
USA 267 3.2 23:02:01 10° ESE 23:08:36 86° SSW 23:15:11 10° WNW
Cosmos 2279 Rocket 4.3 23:04:12 18° S 23:08:49 64° E 23:14:58 10° NNE
Cosmos 1707 4.4 23:12:19 10° NW 23:15:14 20° W 23:16:13 18° WSW
Cosmos 1943 4.2 23:10:21 10° NNW 23:15:49 48° NE 23:21:15 10° ESE
NOSS 8 (A) 4.0 23:15:24 38° SW 23:16:26 86° SE 23:19:30 10° NE
Cosmos 1634 Rocket 4.0 23:12:14 22° SSW 23:16:26 81° WNW 23:22:42 10° N
Helios 1B rocket 3.5 23:15:53 10° N 23:19:36 34° WNW 23:21:48 20° WSW
CZ-4C R/B 3.2 23:19:58 31° SSW 23:21:22 53° WSW 23:24:54 10° NNW
SL-08 R/B 4.3 23:18:57 10° SE 23:23:43 49° ENE 23:28:30 10° N
Cosmos 1680 Rocket 3.4 23:18:32 10° NNW 23:23:47 72° WSW 23:28:50 11° SSE
Cosmos 2227 Rocket 2.3 23:22:42 22° SSW 23:26:26 74° ESE 23:32:07 10° NE
Cosmos 1674 3.3 23:23:52 10° NNW 23:27:20 37° W 23:28:43 27° SW
Cosmos 1607 4.2 23:22:56 10° NW 23:29:07 49° SW 23:35:17 10° SSE
Cosmos 1805 3.2 23:27:20 26° SSW 23:29:28 85° WNW 23:33:23 10° N
SL-14 R/B 3.2 23:28:13 10° NNW 23:32:11 82° W 23:35:00 18° S
Meteor 1-15 Rocket 4.3 23:30:31 21° SSW 23:34:24 73° WNW 23:40:01 10° NNE
H-2A R/B 4.3 23:32:07 10° ESE 23:35:28 24° ENE 23:38:48 10° N
CZ-4B R/B 3.7 23:34:20 10° NNE 23:39:05 59° ESE 23:42:56 15° S
Cosmos 1777 Rocket 4.3 23:35:45 20° SW 23:39:26 60° WNW 23:44:42 10° NNE
Meteor 1-29 4.4 23:36:31 10° N 23:39:28 26° WNW 23:41:13 18° WSW
Cosmos 1733 3.1 23:37:10 23° S 23:39:31 89° ESE 23:43:24 10° NNE
IRS-1D 4.0 23:35:13 10° NNE 23:40:12 57° ESE 23:44:39 13° S
Cosmos 158 Rocket 4.3 23:42:12 10° NW 23:47:23 50° WSW 23:52:22 11° S
Cosmos 2082 3.9 23:44:06 18° SSW 23:48:21 66° ESE 23:53:57 10° NE
ADEOS II 2.5 23:43:24 10° NNE 23:48:37 58° ESE 23:53:32 11° S
GEOS 3 Rocket 3.7 23:43:30 10° NE 23:48:57 89° SSE 23:53:18 16° SW
Cosmos 1726 4.2 23:46:23 10° SE 23:49:22 23° E 23:52:20 10° NE
SL-16 R/B 3.1 23:46:15 17° SSW 23:50:38 40° W 23:56:30 10° NNW
CZ-2D R/B 2.3 23:45:10 10° NNE 23:50:39 71° WNW 23:54:54 17° SSW
NPP 3.7 23:48:58 10° NNE 23:54:23 76° WNW 23:58:41 16° SSW
